Погода в Кабугао

Филиппины     18°02′23″N   121°10′02″E
темп.,
°C
ветер,
м/с
пор.,
м/с
влажн.,
%
обл.,
%
осадки,
мм/ч
давл.,
гПа
погр.,
м
13 мая, чт
чт1323:00+22сз11945 0.0 101212
02:00+21ююз119779 0.0 101126
05:00+20юз11976 0.0 101126
08:00+27ююв14645 0.0 1011572
11:00+34юв34374 0.0 10091603
14:00+36вюв34270 0.0 10072222
17:00+33в24415 0.0 10071035
20:00+23ссв01764 0.0 101011
14 мая, пт
пт1423:00+21зюз11835 0.0 101112
02:00+20ююз11875 0.0 101025
05:00+19зюз11864 0.0 101123
08:00+27ююв13520 0.0 1011486
11:00+33юв25335 0.0 10101450
14:00+35юв34315 0.0 10072157
17:00+33вюв24405 0.0 10071582
20:00+24ссв11845 0.0 101012
15 мая, сб
сб1523:00+23юз11905 0.0 101214
02:00+21юз11925 0.0 101020
05:00+20юз11915 0.0 101123
08:00+28ююв14570 0.0 1012627
11:00+34юв35372 0.0 10101710
14:00+36юв34305 0.0 10072190
17:00+33вюв23405 0.0 10061594
20:00+24ссв11865 0.0 101012
16 мая, вс
вс1623:00+23зюз11915 0.0 101113
02:00+21ююз11935 0.0 100925
05:00+20зюз11925 0.0 101021
08:00+28юв13585 0.0 1011644
11:00+34юв34365 0.0 10091715
14:00+36вюв33301 0.0 10072390
17:00+34всв33409 0.0 10061628
20:00+24св01845 0.0 101011
17 мая, пн
пн1723:00+23зюз11885 0.0 101017
02:00+22ююз11935 0.0 100920
05:00+21юз11935 0.0 101023
08:00+28ююв135851 0.0 1011638
11:00+35юв233271 0.0 10091711
14:00+37вюв32255 0.0 10062433
17:00+34всв33370 0.0 10061677
20:00+24св11815 0.0 101011